TimeEET,TemperatureF,Dew PointF,Humidity,Sea Level PressureIn,VisibilityMPH,Wind Direction,Wind SpeedMPH,Gust SpeedMPH,PrecipitationIn,Events,Conditions,WindDirDegrees,DateUTC
12:50 AM,41.0,41.0,100,30.09,3.7,NNW,3.5,-,N/A,,Unknown,330,2012-10-29 22:50:00
1:50 AM,41.0,39.2,93,30.09,2.2,Variable,1.2,-,N/A,,Mist,0,2012-10-29 23:50:00
2:00 AM,40,40,99,,2,North,1.2,,,,Mist,10,2012-10-30 00:00:00
2:50 AM,41.0,39.2,93,30.09,-9999.0,Variable,1.2,-,N/A,,Mist,0,2012-10-30 00:50:00
3:50 AM,39.2,39.2,100,30.09,-9999.0,Variable,1.2,-,N/A,,Mist,0,2012-10-30 01:50:00
4:50 AM,39.2,37.4,93,30.06,2.2,Variable,2.3,-,N/A,,Mist,0,2012-10-30 02:50:00
5:50 AM,39.2,37.4,93,30.06,2.8,NNW,2.3,-,N/A,,Mist,330,2012-10-30 03:50:00
6:50 AM,41.0,41.0,100,30.06,-9999.0,Variable,1.2,-,N/A,,Mist,0,2012-10-30 04:50:00
7:50 AM,48.2,44.6,87,30.06,6.2,Variable,1.2,-,N/A,,Scattered Clouds,0,2012-10-30 05:50:00
8:00 AM,48,44,79,,6,ESE,1.2,,,,Partly Cloudy,110,2012-10-30 06:00:00
8:50 AM,53.6,44.6,72,30.06,6.2,Variable,2.3,-,N/A,,Scattered Clouds,0,2012-10-30 06:50:00
9:50 AM,57.2,42.8,59,30.06,6.2,ENE,3.5,-,N/A,,Mostly Cloudy,70,2012-10-30 07:50:00
10:50 AM,62.6,42.8,48,30.06,6.2,Calm,Calm,-,N/A,,Mostly Cloudy,0,2012-10-30 08:50:00
11:50 AM,64.4,41.0,42,30.04,6.2,Variable,1.2,-,N/A,,Mostly Cloudy,0,2012-10-30 09:50:00
12:50 PM,64.4,39.2,40,30.01,6.2,Variable,2.3,-,N/A,,Mostly Cloudy,0,2012-10-30 10:50:00
1:50 PM,66.2,37.4,35,30.01,6.2,West,3.5,-,N/A,,Mostly Cloudy,280,2012-10-30 11:50:00
2:00 PM,67,37,22,,12,West,3.5,,,,Partly Cloudy,280,2012-10-30 12:00:00
2:50 PM,66.2,37.4,35,30.01,6.2,Calm,Calm,-,N/A,,Mostly Cloudy,0,2012-10-30 12:50:00
3:50 PM,66.2,39.2,37,30.01,6.2,Calm,Calm,-,N/A,,Mostly Cloudy,0,2012-10-30 13:50:00
4:50 PM,60.8,39.2,45,30.01,-9999.0,Variable,1.2,-,N/A,,Clear,0,2012-10-30 14:50:00
5:50 PM,59.0,37.4,45,30.04,-9999.0,Variable,1.2,-,N/A,,Clear,0,2012-10-30 15:50:00
6:50 PM,55.4,37.4,51,30.04,-9999.0,SSE,2.3,-,N/A,,Clear,150,2012-10-30 16:50:00
7:50 PM,50.0,39.2,66,30.06,-9999.0,Calm,Calm,-,N/A,,Clear,0,2012-10-30 17:50:00
8:00 PM,50,40,58,,6,Calm,Calm,,,,Partly Cloudy,,2012-10-30 18:00:00
8:50 PM,48.2,41.0,76,30.09,-9999.0,NW,1.2,-,N/A,,Clear,320,2012-10-30 18:50:00
9:50 PM,44.6,39.2,81,30.09,-9999.0,SSW,1.2,-,N/A,,Clear,210,2012-10-30 19:50:00
10:50 PM,44.6,41.0,87,30.09,-9999.0,North,1.2,-,N/A,,Clear,350,2012-10-30 20:50:00
11:50 PM,42.8,39.2,87,30.12,-9999.0,Calm,Calm,-,N/A,,Clear,0,2012-10-30 21:50:00